Simultaneous Nadir Overpasses (SNOs) Predictions

Prediction of SNOs near US between NOAA-19 and NPP Satellite Orbit:

Table of predicted SNOs near US for the next 10.0 days since TLE Epoch: 1/8/2013
Index Date (NOAA-19) Time (NOAA-19) NOAA-19 Lat,Lon Date (NPP) Time (NPP) NPP Lat,Lon Distance(km) Time Diff (sec)
1 01/16/2013 06:29:34 42.55, -65.40 01/16/2013 06:29:16 43.07, -68.30 244.16 18
2 01/16/2013 08:10:22 46.97, -89.21 01/16/2013 08:09:30 47.45, -91.99 216.55 52
3 01/16/2013 09:53:02 44.95,-115.54 01/16/2013 09:51:35 45.42,-118.17 213.14 87
4 01/16/2013 17:59:44 49.98, -76.81 01/16/2013 17:55:30 49.67, -78.45 122.12 254
5 01/16/2013 19:41:49 49.99,-102.34 01/16/2013 19:37:01 49.74,-103.85 112.03 288
6 01/16/2013 21:21:51 42.94,-124.99 01/16/2013 21:16:29 42.70,-126.43 120.34 322
7 01/17/2013 08:07:13
